This demonstration page uses our WeatherBlox Daily Observations layout. Learn more.

Left ArrowRight Arrow

Hourly Observations for December 17, 2021

Temp ( °F °C ) Dew Point ( °F °C ) Humidity (%) Winds ( mph kmh ) Pressure ( in mb ) Visibility ( mi km ) Precip ( " mm )
12:41 am 00:41 Mostly Cloudy with Light Snow 3 -16.1 -1 -18.3 83 83 WNW 23 37 30.29 1026 1 2 0.02 0.51
12:53 am 00:53 Mostly Cloudy with Light Snow 3 -16.1 -2 -18.9 79 79 NW 18 30 30.19 1022 1 2 0.02 0.51
1:28 am 01:28 Windy with Snow Likely 1 -17 -2 -19 85 85 NW 21 33 30.33 1027 2 2 0.00 0.00
1:53 am 01:53 Windy with Snow Likely 1 -17.2 -4 -20 79 79 NW 23 37 30.24 1024 2 2 0.01 0.25
2:24 am 02:24 Windy with Snow Likely 1 -17.2 -4 -20 79 79 WNW 23 37 30.39 1029 1 2 0.00 0.00
2:31 am 02:31 Mostly Cloudy with Light Snow 1 -17.2 -4 -20 79 79 NW 22 35 30.40 1029 1 2 0.00 0.00
2:53 am 02:53 Mostly Cloudy with Light Snow 1 -17.2 -4 -20 79 79 WNW 18 30 30.29 1026 1 2 0.01 0.25
3:15 am 03:15 Cloudy with Light Snow 1 -17.2 -5 -20.6 75 75 WNW 18 30 30.43 1030 2 3 0.00 0.00
3:18 am 03:18 Cloudy with Light Snow 1 -17.2 -5 -20.6 75 75 NW 18 30 30.43 1030 2 3 0.00 0.00
3:53 am 03:53 Cloudy with Light Snow 0 -17.8 -6 -21.1 76 76 NW 16 26 30.33 1027 3 4 0.00 0.00
4:18 am 04:18 Cloudy with Light Snow 0 -17.8 -6 -21.1 76 76 NW 16 26 30.48 1032 3 5 0.00 0.00
4:53 am 04:53 Cloudy 0 -17.8 -7 -21.7 72 72 WNW 15 24 30.37 1029 8 13 0.00 0.00
5:53 am 05:53 Cloudy -2 -18.9 -9 -22.8 72 72 WNW 17 28 30.43 1030 10 16 0.00 0.00
6:53 am 06:53 Cloudy -2 -18.9 -9 -22.8 72 72 WNW 16 26 30.45 1031 10 16 0.00 0.00
7:08 am 07:08 Cloudy 0 -18 -9 -23 65 65 WNW 14 22 30.59 1036 10 16 0.00 0.00
7:53 am 07:53 Cloudy -2 -18.9 -8 -22.2 75 75 WNW 12 19 30.48 1032 10 16 0.00 0.00
8:53 am 08:53 Cloudy -3 -19.4 -10 -23.3 71 71 W 10 17 30.51 1033 10 16 0.00 0.00
9:36 am 09:36 Mostly Cloudy -4 -20 -11 -24 71 71 W 9 15 30.67 1039 10 16 0.00 0.00
9:53 am 09:53 Mostly Cloudy -5 -20.6 -12 -24.4 72 72 WSW 10 17 30.54 1034 10 16 0.00 0.00
10:53 am 10:53 Cloudy -4 -20 -11 -23.9 71 71 WSW 14 22 30.55 1035 10 16 0.00 0.00
11:53 am 11:53 Sunny -1 -18.3 -11 -23.9 62 62 W 13 20 30.55 1034 10 16 0.00 0.00
12:53 pm 12:53 Sunny -2 -18.9 -11 -23.9 65 65 WSW 9 15 30.54 1034 10 16 0.00 0.00
1:53 pm 13:53 Sunny -1 -18.3 -10 -23.3 65 65 WSW 10 17 30.52 1034 10 16 0.00 0.00
2:53 pm 14:53 Sunny -1 -18.3 -10 -23.3 65 65 WSW 10 17 30.51 1033 10 16 0.00 0.00
3:53 pm 15:53 Sunny -3 -19.4 -11 -23.9 68 68 W 3 6 30.50 1033 10 16 0.00 0.00
4:53 pm 16:53 Clear -5 -20.6 -12 -24.4 72 72 Calm 30.49 1033 10 16 0.00 0.00
5:53 pm 17:53 Clear -7 -21.7 -12 -24.4 79 79 Calm 30.49 1033 10 16 0.00 0.00
6:53 pm 18:53 Clear -13 -25 -18 -27.8 78 78 E 7 11 30.49 1032 10 16 0.00 0.00
7:53 pm 19:53 Clear -10 -23.3 -15 -26.1 78 78 E 8 13 30.48 1032 10 16 0.00 0.00
8:53 pm 20:53 Clear -10 -23.3 -15 -26.1 78 78 E 9 15 30.46 1032 10 16 0.00 0.00
9:53 pm 21:53 Clear -10 -23.3 -15 -26.1 78 78 E 10 17 30.45 1031 10 16 0.00 0.00
10:53 pm 22:53 Clear -12 -24.4 -17 -27.2 78 78 E 3 6 30.45 1031 10 16 0.00 0.00
11:53 pm 23:53 Clear -13 -25 -18 -27.8 78 78 E 6 9 30.44 1031 10 16 0.00 0.00

Powered by AerisWeather